Voltar ao catálogo

NOAA 20

AtivoMeteoSSO
NORAD 43013·PAYLOAD·🇺🇸 United States

Lançado Nov 18, 2017 de Vandenberg Space Force Base

Loading…

Próximas Passagens (próximas 24 horas)

TLE

AtualizadoSource: Space-Track

Época: Sep 14, 2026, 14:08 UTC

1 43013U 17073A   26257.58906438  .00000050  00000-0  44522-4 0  9990
2 43013  98.7814 196.2715 0001552  50.3391 309.7921 14.19525834457150

Acompanhe NOAA 20 em tempo real com AllMySat

Download on the App Store